#timestamp,LO_Frequency,Hit,StdDev 
1656068415.4,286046996.6,N
1656068435.2,286046996.7,N
1656068455.0,286046997.0,N
1656068455.9,286046997.0,N
1656068475.8,286046997.8,N
1656068495.6,286046997.6,N
1656068515.4,286046997.7,N
1656068535.3,286046997.7,N
1656068555.1,286046997.0,N
1656068575.9,286046996.8,N
1656068595.7,286046997.3,N
1656068615.6,286046997.1,N
1656068635.4,286046996.5,Y
1656068655.2,286047000.0,P
1656068675.1,286046998.2,N
1656068676.0,286046998.2,N
1656068695.8,286046999.3,N
1656068715.7,286046998.2,N
1656068735.5,286047000.8,N
1656068755.3,286046998.7,N
1656068775.2,286046998.3,N
1656068795.0,286046998.1,N
1656068795.9,286046998.1,N
1656068815.8,286046998.3,N
1656068835.6,286046998.5,N
1656068855.5,286046998.6,N
1656068875.3,286047001.1,N
1656068895.1,286046998.3,N
1656068915.9,286046998.9,N
1656068935.7,286046997.0,Y
1656068955.5,286047000.8,P
1656068975.4,286047000.1,N
1656068995.2,286047001.0,N
1656069015.1,286047000.7,N
1656069016.0,286047000.7,N
1656069035.8,286047000.9,N
1656069055.6,286047001.1,N
1656069075.5,286047000.6,N
1656069095.3,286047000.2,N
1656069115.1,286047000.3,N
1656069135.9,286047000.6,N
1656069155.7,286047002.4,Y
1656069175.6,286047000.5,P
1656069195.4,286046998.1,P
1656069215.2,286046998.7,N
1656069235.1,286047001.1,N
1656069236.0,286047001.1,N
1656069255.8,286046998.7,N
1656069275.7,286046998.6,N
1656069295.5,286046998.1,N
1656069315.3,286047000.8,N
1656069335.2,286046998.8,N
1656069355.9,286047000.5,N
1656069375.7,286046998.5,N
1656069395.6,286047000.7,N
1656069415.4,286046998.3,N
1656069435.3,286046998.6,N
1656069455.1,286046998.5,N
1656069456.0,286046998.5,N
1656069475.8,286046998.7,N
1656069495.7,286046998.3,N
1656069515.5,286046998.9,N
1656069535.3,286046998.8,N
1656069555.2,286046999.5,N
1656069575.0,286046999.6,N
1656069575.9,286046999.6,N
1656069595.8,286046998.9,N
1656069615.6,286046999.2,N
1656069635.4,286046998.8,N
1656069655.3,286047001.0,N
1656069675.1,286046999.9,N
1656069695.8,286047002.4,N
1656069715.7,286047002.7,N
1656069735.5,286046999.8,N
1656069755.4,286047000.1,N
1656069775.2,286046998.5,N
1656069795.0,286046998.3,N
1656069795.9,286046998.3,N
1656069815.8,286046998.8,N
1656069835.6,286046996.9,N
1656069855.4,286046999.5,N
1656069875.3,286046998.4,N
1656069895.1,286046998.3,N
1656069915.9,286046998.9,N
1656069935.7,286046998.1,N
1656069955.5,286046998.4,N
1656069975.4,286046998.6,N
1656069995.2,286046998.1,N
1656070015.0,286046998.6,N
1656070015.9,286046998.6,N
1656070035.8,286046999.3,N
1656070055.6,286046999.0,N
1656070075.5,286046999.4,N
1656070095.3,286046998.5,N
1656070115.1,286047000.8,N
1656070135.9,286046998.5,N
1656070155.7,286046998.8,N
1656070175.5,286046998.4,N
1656070195.4,286046999.1,N
1656070215.2,286046999.4,N
1656070235.1,286046999.6,N
1656070236.0,286046999.6,N
1656070255.8,286047001.2,N
1656070275.6,286046999.9,N
1656070295.5,286047002.8,Y
1656070315.3,286047002.0,P
1656070335.2,286047001.9,N
1656070355.9,286047001.9,N
1656070375.7,286047002.3,N
1656070395.6,286047000.0,N
1656070415.4,286047002.1,N
1656070435.2,286047001.5,N
1656070455.1,286047000.9,N
1656070456.0,286047000.9,N
1656070475.8,286047000.5,N
1656070495.7,286047000.8,N
1656070515.5,286047002.8,N
1656070535.3,286047000.9,N
1656070555.2,286047000.4,N
1656070575.0,286047000.4,N
1656070575.9,286047000.4,N
1656070595.7,286047002.8,N
1656070615.6,286047000.0,N
1656070635.4,286047000.0,N
1656070655.3,286047001.2,N
1656070675.1,286046999.9,N
1656070676.0,286046999.9,N
1656070695.8,286047000.9,N
1656070715.7,286046999.8,N
1656070735.5,286046999.9,N
1656070755.3,286047000.5,N
1656070775.2,286047000.0,N
1656070795.0,286047002.5,N
1656070795.9,286047002.5,N
1656070815.8,286046999.8,N
1656070835.6,286047000.2,N
1656070855.4,286047000.3,N
1656070875.3,286047000.6,N
1656070895.1,286046998.1,N
1656070915.9,286046998.1,N
1656070935.7,286046998.6,N
1656070955.5,286047000.8,N
1656070975.4,286047000.7,N
1656070995.2,286047001.2,N
1656071015.0,286047000.5,N
1656071015.9,286047000.5,N
1656071035.8,286046999.3,N
1656071055.6,286047000.7,N
1656071075.5,286047000.7,N
1656071095.3,286047002.7,N
1656071115.1,286047002.7,N
1656071135.9,286046999.7,N
1656071155.7,286047000.2,N
1656071175.5,286047002.2,N
1656071195.4,286047000.9,N
1656071215.2,286047002.5,N
1656071235.1,286047000.5,N
1656071236.0,286047000.5,N
1656071255.8,286046999.9,N
1656071275.6,286046998.1,N
1656071295.5,286047000.7,N
1656071315.3,286047000.3,N
1656071335.1,286046999.9,N
1656071355.9,286047000.1,N
1656071375.7,286047000.0,N
1656071395.6,286047001.2,N
1656071415.4,286046998.9,N
1656071435.2,286046998.1,N
1656071455.1,286047000.5,N
1656071456.0,286047000.5,N
1656071475.8,286046998.4,N
1656071495.6,286046999.4,N
1656071515.5,286046999.3,N
1656071535.3,286046999.0,N
1656071555.2,286046998.3,N
1656071575.9,286047001.0,N
1656071595.7,286047000.6,N
1656071615.6,286047000.9,N
1656071635.4,286047000.5,N
1656071655.2,286046999.9,N
1656071675.1,286047002.2,N
1656071676.0,286047002.2,N
1656071695.8,286047002.2,N
1656071715.7,286047004.4,Y
1656071735.5,286047004.4,P
1656071755.3,286047004.2,N
1656071775.2,286047004.3,N
1656071795.0,286047004.4,N
1656071795.9,286047004.4,N
1656071815.8,286047002.0,N
1656071835.6,286047001.4,N
1656071855.4,286047004.1,N
1656071875.3,286047001.6,N
1656071895.1,286047003.8,N
1656071915.9,286047003.2,N
1656071935.7,286047003.7,N
1656071955.5,286047001.4,N
1656071975.4,286047004.0,N
1656071995.2,286047002.0,N
